{"data":{"norad_id":60330,"epoch":"2026-09-21T08:46:39.322560Z","epoch_age_seconds":110785,"freshness":"FRESH","line1":"1 60330U 24136B   26264.36573290 -.00000438  00000+0 -18423-5 0  9992","line2":"2 60330  53.1573 245.3436 0001013  82.8379 277.2739 15.34377265119648","mean_motion":15.34377265,"eccentricity":0.0001013,"inclination_deg":53.1573,"raan_deg":245.3436,"arg_perigee_deg":82.8379,"mean_anomaly_deg":277.2739,"bstar":-1.8423e-6,"rev_number":11964,"period_min":93.849148631644,"perigee_km":462.07783029107,"apogee_km":463.46379821424,"semimajor_km":6840.9078142527,"source":"CELESTRAK","updated_at":"2026-09-22T09:00:49.218900Z"}}